DW7628 Caltanissetta IT current weather conditions

sailwx.info

Wind from 048

Air temperature 22.8° C
Dewpoint 15.6° C

Last reported at 2020-Sep-24 19:48 UTC.
Time now 2020-Sep-24 21:07 UTC

Location: N 37°30' E 014°03'.
View on Google Maps.

See reports from other nearby stations

  
Tides and Currents Weather Stations Pressure Air Temp Water Temp Dewpoint Dewpoint Depression Visibility Wind Speed Wind Dir Waves Ship Positions
date/time (UTC)wind fromknots sea level pressurealtimeterstation pressurevisibilityair tempwater tempwave heightnotes
2020-Sep-24 19:48 048 22.8
2020-Sep-24 19:38 034 22.8
2020-Sep-24 19:28 250 22.8
2020-Sep-24 19:18 274 22.8
2020-Sep-24 19:08 236 22.8
2020-Sep-24 18:58 082 22.8
2020-Sep-24 18:48 066 23.3
2020-Sep-24 18:38 072 23.3
2020-Sep-24 18:28 088 0 gusting 2 23.3
2020-Sep-24 18:18 23.3
2020-Sep-24 18:08 025 0 gusting 2 23.9
2020-Sep-24 17:58 258 23.9
2020-Sep-24 17:48 258 0 gusting 5 24.4
2020-Sep-24 17:38 313 0 gusting 6 24.4
2020-Sep-24 17:28 255 1 gusting 6 24.4
2020-Sep-24 17:18 298 0 gusting 5 24.4
2020-Sep-24 17:08 298 1 gusting 5 24.4
2020-Sep-24 16:58 300 1 gusting 6 25.0
2020-Sep-24 16:48 266 0 gusting 2 25.0
2020-Sep-24 16:38 261 25.6
2020-Sep-24 16:28 263 0 gusting 5 25.6
2020-Sep-24 16:18 229 0 gusting 7 25.6
2020-Sep-24 16:08 300 2 gusting 7 26.1
2020-Sep-24 15:58 185 2 gusting 6 26.7
2020-Sep-24 15:48 253 2 gusting 6 26.7
2020-Sep-24 15:38 328 1 gusting 7 27.2
2020-Sep-24 15:28 311 1 gusting 6 27.8
2020-Sep-24 15:18 285 1 gusting 6 28.3
2020-Sep-24 15:08 240 2 gusting 6 28.3
2020-Sep-24 14:58 267 0 gusting 6 28.3
2020-Sep-24 14:48 317 1 gusting 6 28.9
2020-Sep-24 14:38 294 2 gusting 7 28.3
2020-Sep-24 14:28 293 1 gusting 6 28.9
2020-Sep-24 14:18 248 1 gusting 7 28.9
2020-Sep-24 14:08 264 1 gusting 6 28.9
2020-Sep-24 13:58 242 2 gusting 7 29.4
2020-Sep-24 13:48 277 1 gusting 6 29.4
2020-Sep-24 13:38 245 1 gusting 7 29.4
2020-Sep-24 13:28 232 1 gusting 6 30.0
2020-Sep-24 12:58 263 1 gusting 6 30.0
2020-Sep-24 12:48 198 1 gusting 6 29.4
2020-Sep-24 12:38 312 1 gusting 4 30.0
2020-Sep-24 12:28 336 2 gusting 6 30.0
2020-Sep-24 12:18 308 0 gusting 5 29.4
2020-Sep-24 12:08 152 2 gusting 6 29.4
2020-Sep-24 11:58 269 2 gusting 8 28.9
2020-Sep-24 11:48 340 2 gusting 6 28.9
2020-Sep-24 11:38 193 1 gusting 5 28.9
2020-Sep-24 11:28 236 0 gusting 4 28.9
2020-Sep-24 11:18 205 0 gusting 5 28.9
2020-Sep-24 11:08 173 1 gusting 4 29.4
2020-Sep-24 10:58 301 1 gusting 5 29.4
2020-Sep-24 10:48 053 1 gusting 5 28.9
2020-Sep-24 10:38 064 0 gusting 7 28.9
2020-Sep-24 10:28 141 0 gusting 4 28.3
2020-Sep-24 10:18 317 0 gusting 4 28.3
2020-Sep-24 10:08 289 0 gusting 2 28.3
2020-Sep-24 09:58 113 0 gusting 2 27.8
2020-Sep-24 09:48 355 27.8
2020-Sep-24 09:38 235 27.8
2020-Sep-24 09:28 083 26.7
2020-Sep-24 09:18 063 1 gusting 4 26.1
2020-Sep-24 09:08 054 1 gusting 2 26.7
2020-Sep-24 08:58 048 0 gusting 2 26.7
2020-Sep-24 08:48 269 26.1
2020-Sep-24 08:38 068 25.6
2020-Sep-24 08:28 077 25.6
2020-Sep-24 08:18 153 25.6
2020-Sep-24 08:08 145 0 gusting 2 25.0
2020-Sep-24 07:58 224 0 gusting 2 25.0
2020-Sep-24 07:48 094 25.0
2020-Sep-24 07:38 044 25.0
2020-Sep-24 07:28 091 24.4
2020-Sep-24 07:18 050 23.9
2020-Sep-24 07:08 075 0 gusting 1 23.9
2020-Sep-24 06:58 089 24.4
2020-Sep-24 06:48 076 23.9
2020-Sep-24 06:38 030 22.8
2020-Sep-24 06:28 031 22.2
2020-Sep-24 06:18 061 21.1
2020-Sep-24 06:08 061 20.0
2020-Sep-24 05:58 247 19.4
2020-Sep-24 05:48 247 18.9
2020-Sep-24 05:38 247 18.9
2020-Sep-24 05:28 247 18.3
2020-Sep-24 05:18 247 18.3
2020-Sep-24 05:08 247 18.3
2020-Sep-24 04:58 247 18.3
2020-Sep-24 04:48 247 18.3
2020-Sep-24 04:38 247 18.3
2020-Sep-24 04:28 247 18.3
2020-Sep-24 04:18 247 18.9
2020-Sep-24 04:08 247 18.9
2020-Sep-24 03:58 247 18.9
2020-Sep-24 03:48 247 18.9
2020-Sep-24 03:38 247 18.9
2020-Sep-24 03:28 247 18.9
2020-Sep-24 03:18 247 18.9
2020-Sep-24 03:08 247 18.9
2020-Sep-24 02:58 247 18.9
2020-Sep-24 02:48 247 18.9
2020-Sep-24 02:38 247 18.9
2020-Sep-24 02:28 255 18.9
2020-Sep-24 02:18 262 19.4
2020-Sep-24 02:08 262 19.4
2020-Sep-24 01:58 307 19.4
2020-Sep-24 01:48 261 19.4
2020-Sep-24 01:38 074 20.0
2020-Sep-24 01:28 101 20.0
2020-Sep-24 01:18 167 20.0
2020-Sep-24 01:08 124 20.0
2020-Sep-24 00:58 065 20.0
2020-Sep-24 00:48 093 20.0
2020-Sep-24 00:38 105 20.6
2020-Sep-24 00:28 075 20.6
2020-Sep-24 00:18 193 20.6
2020-Sep-24 00:08 064 20.6
2020-Sep-23 23:58 146 20.6
2020-Sep-23 23:48 129 20.6
2020-Sep-23 23:38 108 20.6
2020-Sep-23 23:28 259 20.6
2020-Sep-23 23:18 071 20.6
2020-Sep-23 23:08 077 21.1
2020-Sep-23 22:58 061 21.1
2020-Sep-23 22:48 101 20.6
2020-Sep-23 22:38 101 20.6
2020-Sep-23 22:28 084 21.1
2020-Sep-23 22:18 080 21.1
2020-Sep-23 22:08 090 21.1
2020-Sep-23 21:58 089 21.1
2020-Sep-23 21:48 070 21.7
2020-Sep-23 21:38 051 21.7
2020-Sep-23 21:28 043 21.7
2020-Sep-23 21:18 262 21.7
2020-Sep-23 21:08 059 21.7
2020-Sep-23 20:58 070 21.7
2020-Sep-23 20:48 070 22.2
2020-Sep-23 20:38 065 22.2
2020-Sep-23 20:28 065 22.2
2020-Sep-23 20:18 063 22.2
2020-Sep-23 20:08 064 22.2
2020-Sep-23 19:58 060 22.2
2020-Sep-23 19:48 262 22.2
2020-Sep-23 19:38 049 22.8
2020-Sep-23 19:28 264 22.2
2020-Sep-23 19:18 264 22.2
2020-Sep-23 19:08 263 22.8
2020-Sep-23 18:58 246 22.8
2020-Sep-23 18:48 255 22.8
2020-Sep-23 18:38 243 23.3
2020-Sep-23 18:28 243 23.3
2020-Sep-23 18:18 060 23.3
2020-Sep-23 18:08 233 23.3
2020-Sep-23 17:58 256 23.3
2020-Sep-23 17:48 281 23.3
2020-Sep-23 17:38 127 23.9
2020-Sep-23 17:28 126 23.3
2020-Sep-23 17:18 129 23.9
2020-Sep-23 17:08 054 23.9
2020-Sep-23 16:58 265 23.9
2020-Sep-23 16:48 249 23.9
2020-Sep-23 16:38 131 23.9
2020-Sep-23 16:28 103 0 gusting 6 23.9
2020-Sep-23 16:18 265 24.4
2020-Sep-23 16:08 136 0 gusting 2 25.0
2020-Sep-23 15:58 080 1 gusting 10 26.1
2020-Sep-23 15:48 036 1 gusting 7 27.2
2020-Sep-23 15:38 341 1 gusting 7 27.8
2020-Sep-23 15:28 305 1 gusting 6 27.8
2020-Sep-23 15:18 316 2 gusting 6 27.8
2020-Sep-23 15:08 161 1 gusting 6 28.3
2020-Sep-23 14:58 311 1 gusting 6 28.3
2020-Sep-23 14:48 324 1 gusting 7 28.9
2020-Sep-23 14:38 289 0 gusting 6 29.4
2020-Sep-23 14:28 271 1 gusting 7 29.4
2020-Sep-23 14:18 284 3 gusting 6 29.4
2020-Sep-23 14:08 011 2 gusting 8 29.4
2020-Sep-23 13:58 241 3 gusting 7 29.4
2020-Sep-23 13:48 278 1 gusting 7 30.0
2020-Sep-23 13:38 265 3 gusting 7 30.0
2020-Sep-23 13:28 274 2 gusting 6 30.0
2020-Sep-23 13:18 143 1 gusting 4 29.4
2020-Sep-23 13:08 091 0 gusting 2 30.0
2020-Sep-23 12:58 299 1 gusting 5 30.0
2020-Sep-23 12:48 068 0 gusting 2 30.0
2020-Sep-23 12:38 289 0 gusting 5 30.6
2020-Sep-23 12:28 104 1 gusting 4 30.6
2020-Sep-23 12:18 060 1 gusting 2 30.6
2020-Sep-23 12:08 217 1 gusting 2 30.6
2020-Sep-23 11:58 035 0 gusting 2 30.6
2020-Sep-23 11:48 065 1 gusting 2 30.0
2020-Sep-23 11:38 043 1 gusting 4 29.4
2020-Sep-23 11:28 218 0 gusting 4 28.9
2020-Sep-23 11:18 075 29.4
2020-Sep-23 11:08 211 0 gusting 2 28.9
2020-Sep-23 10:58 276 0 gusting 2 28.3
2020-Sep-23 10:48 095 28.9
2020-Sep-23 10:38 132 27.8
2020-Sep-23 10:28 150 0 gusting 2 27.8
2020-Sep-23 10:18 201 0 gusting 2 27.2
2020-Sep-23 10:08 089 1 gusting 2 27.8
2020-Sep-23 09:58 091 1 gusting 4 27.2
2020-Sep-23 09:48 169 1 gusting 4 27.2
2020-Sep-23 09:38 192 0 gusting 6 27.2
2020-Sep-23 09:28 302 0 gusting 1 27.2
2020-Sep-23 09:18 130 1 gusting 2 27.2
2020-Sep-23 09:08 255 26.7
2020-Sep-23 08:58 157 26.1
2020-Sep-23 08:48 143 0 gusting 1 25.6
2020-Sep-23 08:38 105 0 gusting 2 25.0
2020-Sep-23 08:28 103 0 gusting 2 25.0
2020-Sep-23 08:18 074 0 gusting 2 25.0
2020-Sep-23 08:08 146 25.0
2020-Sep-23 07:58 275 24.4
2020-Sep-23 07:48 232 0 gusting 1 24.4
2020-Sep-23 07:38 094 0 gusting 2 23.9
2020-Sep-23 07:28 145 23.9
2020-Sep-23 07:18 191 23.3
2020-Sep-23 07:08 138 23.3
2020-Sep-23 06:58 236 23.3
2020-Sep-23 06:48 220 23.3
2020-Sep-23 06:38 150 22.2
2020-Sep-23 06:28 057 21.7
2020-Sep-23 06:18 141 21.1
2020-Sep-23 06:08 141 20.6
2020-Sep-23 05:58 061 20.0
2020-Sep-23 05:48 085 20.0
2020-Sep-23 05:38 099 19.4
2020-Sep-23 05:28 101 19.4
2020-Sep-23 05:18 139 19.4
2020-Sep-23 05:08 152 19.4
2020-Sep-23 04:58 165 19.4
2020-Sep-23 04:48 104 19.4
2020-Sep-23 04:38 179 19.4
2020-Sep-23 04:28 179 20.0
2020-Sep-23 04:18 179 20.0
2020-Sep-23 04:08 086 20.0
2020-Sep-23 03:58 089 20.0
2020-Sep-23 03:48 101 20.0
2020-Sep-23 03:38 096 20.0
2020-Sep-23 03:28 096 20.0
2020-Sep-23 03:18 096 20.0
2020-Sep-23 03:08 149 20.0
2020-Sep-23 02:58 131 20.6
2020-Sep-23 02:48 105 0 gusting 1 20.6
2020-Sep-23 02:38 080 20.6
2020-Sep-23 02:28 099 20.6
2020-Sep-23 02:18 097 20.6
2020-Sep-23 02:08 086 20.6
2020-Sep-23 01:58 243 20.6
2020-Sep-23 01:48 084 20.6
2020-Sep-23 01:38 221 20.6
2020-Sep-23 01:28 075 20.6
2020-Sep-23 01:18 086 0 gusting 2 20.6
2020-Sep-23 01:08 127 20.6
2020-Sep-23 00:58 103 21.1
2020-Sep-23 00:48 098 0 gusting 2 20.6
2020-Sep-23 00:38 096 0 gusting 2 20.6
2020-Sep-23 00:28 105 20.6
2020-Sep-23 00:18 088 20.6
2020-Sep-23 00:08 285 20.6
2020-Sep-22 23:58 110 20.6
2020-Sep-22 23:48 260 20.6
2020-Sep-22 23:38 255 20.6
2020-Sep-22 23:28 326 20.6
2020-Sep-22 23:18 281 20.6
2020-Sep-22 23:08 231 21.1
2020-Sep-22 22:58 252 21.1
2020-Sep-22 22:48 084 21.1
2020-Sep-22 22:38 080 21.1
2020-Sep-22 22:28 226 21.1
2020-Sep-22 22:18 105 21.7
2020-Sep-22 22:08 094 21.1
2020-Sep-22 21:58 094 21.7
2020-Sep-22 21:48 090 21.7
2020-Sep-22 21:38 094 21.7
2020-Sep-22 21:28 090 21.1
2020-Sep-22 21:18 116 0 gusting 2 21.7
2020-Sep-22 21:08 226 21.7